GAOFEN-8

Last updated on Thu Oct 30 2025 00:02:31 GMT+0000 (Coordinated Universal Time)

1 40701U 15030A 25302.57771354 .00043060 00000+0 12073-2 0 9999 2 40701 97.6936 118.6381 0010778 304.0684 55.9536 15.36409403575926
UTC large
Height (km)
Speed (km/s)
/
Latitude / Longitude
Inclination (degrees)
Orbital Period (minutes)
Azimuth
Elevation
Range (km)
Doppler Factor

Next 0 passes for location: London (51.5072 / 0.1276)

Sorry there are no passes over London.